LQSAT

导读

LQSAT是中国于2015年10月7日08时发射的人造卫星,作为中国航天发展进程中的重要组成部分,承载着相关航天技术试验或应用探索使命。该卫星在进入预定轨道后,开展既定空间任务,为中国积累空间运行经验、推动航天技术创新应用提供了支撑,助力中国航天领域持续探索与发展,彰显中国自主航天探索的稳步推进。

Basic Information
目录编号:
40958
目录名称:
LQSAT
国际标识:
2015-057A
轨道中心:
EARTH
卫星名称:
LQSAT
卫星全名:
--
卫星状态:
在轨 (已飞行3993 天)
发射日期:
2015-10-07 UTC
国别 :
中国 (CN)
星等 :
--
This satellite is enrolled in the Space Conjunction Data Service (SCDS) and the current flight risk assessment level is: No High Risk
Orbit Information
数据来源 国际轨道数据
星历时间: 2026-09-12T06:19:59+0800
8小时前
查看轨道信息
半长轴: 7017.361km
偏心率: 0.0017094
轨道倾角: 97.676°
近地点辐角 356.222°
升交点赤经 244.050°
平近点角 3.886°
近地点: 627.228km
远地点: 651.22km
周期: 97.504分钟
每日圈数: 14.768695
Detailed Information
使用方式:
暂无
2D Orbit Map
3D Orbit Map
Orbit Altitude Analysis Chart
Orbit Inclination Analysis Chart
Orbit Comprehensive Analysis Chart
View Comprehensive Chart
Conjunction Data List
Event ID Objects TCA Miss Dist (km) Collision Risk Probability Collision Risk Index (CRI) Action
CDM_260913-032904-095806-514224
LQSAT (40958)
2026-09-13T
03:29:53+0000
2.437 km
极远距离
1.814105E-6 低风险 0.4
CDM_260912-205204-095806-928822
LQSAT (40958)
2026-09-12T
20:52:57+0000
2.619 km
极远距离
1.531555E-6 低风险 0.39
CDM_260913-050704-095806-514222
LQSAT (40958)
2026-09-13T
05:07:18+0000
2.765 km
极远距离
1.469814E-6 低风险 0.38
Miss Distance Evolution Trend with All Objects
Collision Probability Evolution Trend with All Objects